User: anonymous   Login
Location: Unspecified
(0.0000°N, 0.0000°E)
Time: 15:27:44
(UTC+02:00)
Language:

Iridium 33 - Orbit

View from above orbital plane
View from above orbital plane
View from above satellite
View from above satellite

Ground track
Ground track

The orbit data is extracted from the following two-line orbital elements,

1 24946U 97051C   16239.47986861  .00000104  00000-0  30452-4 0  9990
2 24946  86.3849  50.0876 0009804 116.7889 243.4310 14.33505904991811
Epoch (UTC): 26 August 2016 11:31:00
Eccentricity: 0.0009804
inclination: 86.3849°
perigee height: 773 km
apogee height: 787 km
right ascension of ascending node: 50.0876°
argument of perigee: 116.7889°
revolutions per day: 14.33505904
mean anomaly at epoch: 243.4310°
orbit number at epoch: 99181

The dashed part of the orbit path shows where the satellite is in the earth's shadow,  

DLR